Time,TemperatureF,DewpointF,PressureIn,WindDirection,WindDirectionDegrees,WindSpeedMPH,WindSpeedGustMPH,Humidity,HourlyPrecipIn,Conditions,Clouds,dailyrainin,SoftwareType,DateUTC
2013-01-13 00:01:00,40.8,40.3,30.15,SW,229,0.0,0.0,98,0.00,,,0.00,WeatherTracker,2013-01-13 05:01:00,
2013-01-13 00:05:00,40.9,40.4,30.14,SW,229,0.0,0.0,98,0.00,,,0.00,WeatherTracker,2013-01-13 05:05:00,
2013-01-13 00:10:00,40.9,40.4,30.14,SW,229,0.0,0.0,98,0.00,,,0.00,WeatherTracker,2013-01-13 05:10:00,
2013-01-13 00:15:00,40.9,40.4,30.14,SW,229,0.0,0.0,98,0.00,,,0.00,WeatherTracker,2013-01-13 05:15:00,
2013-01-13 00:25:00,41.0,40.5,30.14,WSW,239,1.0,0.0,98,0.00,,,0.00,WeatherTracker,2013-01-13 05:25:00,
2013-01-13 00:30:00,41.1,40.6,30.14,WNW,290,1.0,0.0,98,0.00,,,0.00,WeatherTracker,2013-01-13 05:30:00,
2013-01-13 00:35:00,41.1,40.6,30.14,West,273,1.0,0.0,98,0.00,,,0.00,WeatherTracker,2013-01-13 05:35:00,
2013-01-13 00:45:00,41.1,40.6,30.14,SW,232,3.0,0.0,98,0.00,,,0.00,WeatherTracker,2013-01-13 05:45:00,
2013-01-13 00:55:00,41.1,40.6,30.14,WSW,256,1.0,0.0,98,0.00,,,0.00,WeatherTracker,2013-01-13 05:55:00,
2013-01-13 01:00:00,41.1,40.6,30.14,WSW,254,2.0,0.0,98,0.00,,,0.00,WeatherTracker,2013-01-13 06:00:00,
2013-01-13 01:10:00,41.3,41.0,30.13,WSW,250,2.0,0.0,99,0.00,,,0.00,WeatherTracker,2013-01-13 06:10:00,
2013-01-13 01:15:00,41.5,41.2,30.14,West,269,3.0,0.0,99,0.00,,,0.00,WeatherTracker,2013-01-13 06:15:00,
2013-01-13 01:20:00,41.5,41.2,30.14,SW,236,2.0,0.0,99,0.00,,,0.00,WeatherTracker,2013-01-13 06:20:00,
2013-01-13 01:30:00,41.6,41.3,30.13,WSW,254,1.0,0.0,99,0.00,,,0.00,WeatherTracker,2013-01-13 06:30:00,
2013-01-13 01:35:00,41.6,41.3,30.14,SW,233,4.0,0.0,99,0.00,,,0.00,WeatherTracker,2013-01-13 06:35:00,
2013-01-13 01:40:00,41.6,41.3,30.14,SW,216,1.0,0.0,99,0.00,,,0.00,WeatherTracker,2013-01-13 06:40:00,
2013-01-13 01:50:00,41.6,41.1,30.14,SSW,200,2.0,0.0,98,0.00,,,0.00,WeatherTracker,2013-01-13 06:50:00,
2013-01-13 01:55:00,41.6,41.3,30.14,SW,224,2.0,0.0,99,0.00,,,0.00,WeatherTracker,2013-01-13 06:55:00,
2013-01-13 02:00:00,41.6,41.1,30.14,WSW,243,2.0,0.0,98,0.00,,,0.00,WeatherTracker,2013-01-13 07:00:00,
2013-01-13 02:10:00,41.6,41.3,30.15,West,261,1.0,0.0,99,0.00,,,0.00,WeatherTracker,2013-01-13 07:10:00,
2013-01-13 02:15:00,41.7,41.4,30.15,West,261,1.0,0.0,99,0.00,,,0.00,WeatherTracker,2013-01-13 07:15:00,
2013-01-13 02:20:00,41.7,41.4,30.15,West,265,1.0,0.0,99,0.00,,,0.00,WeatherTracker,2013-01-13 07:20:00,
2013-01-13 02:25:00,41.7,41.4,30.15,West,267,0.0,0.0,99,0.00,,,0.00,WeatherTracker,2013-01-13 07:25:00,
2013-01-13 02:30:00,41.7,41.4,30.14,West,266,2.0,0.0,99,0.00,,,0.00,WeatherTracker,2013-01-13 07:30:00,
2013-01-13 02:40:00,41.7,41.4,30.14,SW,226,2.0,0.0,99,0.00,,,0.00,WeatherTracker,2013-01-13 07:40:00,
2013-01-13 02:45:00,41.6,41.3,30.14,SW,231,3.0,0.0,99,0.00,,,0.00,WeatherTracker,2013-01-13 07:45:00,
2013-01-13 02:50:00,41.5,41.2,30.14,SW,222,2.0,0.0,99,0.00,,,0.00,WeatherTracker,2013-01-13 07:50:00,
2013-01-13 03:00:00,41.6,41.3,30.14,SW,219,2.0,0.0,99,0.00,,,0.00,WeatherTracker,2013-01-13 08:00:00,
2013-01-13 03:05:00,41.6,41.3,30.14,SW,220,0.0,0.0,99,0.00,,,0.00,WeatherTracker,2013-01-13 08:05:00,
2013-01-13 03:15:00,41.6,41.3,30.15,SW,220,0.0,0.0,99,0.00,,,0.00,WeatherTracker,2013-01-13 08:15:00,
2013-01-13 03:20:00,41.7,41.4,30.14,SW,220,0.0,0.0,99,0.00,,,0.00,WeatherTracker,2013-01-13 08:20:00,
2013-01-13 03:30:00,41.8,41.5,30.14,SW,231,2.0,0.0,99,0.00,,,0.00,WeatherTracker,2013-01-13 08:30:00,
2013-01-13 03:35:00,41.8,41.5,30.13,SW,230,1.0,0.0,99,0.00,,,0.00,WeatherTracker,2013-01-13 08:35:00,
2013-01-13 03:45:00,41.8,41.5,30.13,SW,234,1.0,0.0,99,0.00,,,0.00,WeatherTracker,2013-01-13 08:45:00,
2013-01-13 03:50:00,41.8,41.5,30.13,West,265,1.0,0.0,99,0.00,,,0.00,WeatherTracker,2013-01-13 08:50:00,
2013-01-13 03:55:00,41.8,41.5,30.12,West,265,2.0,0.0,99,0.00,,,0.00,WeatherTracker,2013-01-13 08:55:00,
2013-01-13 04:00:00,41.7,41.4,30.12,West,269,2.0,0.0,99,0.00,,,0.00,WeatherTracker,2013-01-13 09:00:00,
2013-01-13 04:10:00,41.6,41.3,30.11,West,263,1.0,0.0,99,0.00,,,0.00,WeatherTracker,2013-01-13 09:10:00,
2013-01-13 04:20:00,41.6,41.3,30.11,West,263,1.0,0.0,99,0.00,,,0.00,WeatherTracker,2013-01-13 09:20:00,
2013-01-13 04:25:00,41.6,41.3,30.11,West,263,0.0,0.0,99,0.00,,,0.00,WeatherTracker,2013-01-13 09:25:00,
2013-01-13 04:30:00,41.6,41.3,30.11,WSW,257,1.0,0.0,99,0.00,,,0.00,WeatherTracker,2013-01-13 09:30:00,
2013-01-13 04:40:00,41.5,41.2,30.11,SW,234,2.0,0.0,99,0.00,,,0.00,WeatherTracker,2013-01-13 09:40:00,
2013-01-13 04:50:00,41.6,41.3,30.12,SW,235,1.0,0.0,99,0.00,,,0.00,WeatherTracker,2013-01-13 09:50:00,
2013-01-13 05:00:00,41.6,41.3,30.11,SSW,207,0.0,0.0,99,0.00,,,0.00,WeatherTracker,2013-01-13 10:00:00,
2013-01-13 05:05:00,41.7,41.4,30.10,SSW,203,0.0,0.0,99,0.00,,,0.00,WeatherTracker,2013-01-13 10:05:00,
2013-01-13 05:10:00,41.8,41.5,30.10,SSW,203,0.0,0.0,99,0.00,,,0.00,WeatherTracker,2013-01-13 10:10:00,
2013-01-13 05:15:00,41.9,41.6,30.10,SW,229,0.0,0.0,99,0.00,,,0.00,WeatherTracker,2013-01-13 10:15:00,
2013-01-13 05:20:00,42.0,41.7,30.09,SW,229,0.0,0.0,99,0.00,,,0.00,WeatherTracker,2013-01-13 10:20:00,
2013-01-13 05:30:00,42.0,41.7,30.09,SW,229,0.0,0.0,99,0.00,,,0.00,WeatherTracker,2013-01-13 10:30:00,
2013-01-13 05:35:00,42.0,41.7,30.10,SW,229,2.0,0.0,99,0.00,,,0.00,WeatherTracker,2013-01-13 10:35:00,
2013-01-13 05:40:00,41.9,41.6,30.11,SW,229,1.0,0.0,99,0.00,,,0.00,WeatherTracker,2013-01-13 10:40:00,
2013-01-13 05:50:00,42.0,41.7,30.11,West,280,0.0,0.0,99,0.00,,,0.00,WeatherTracker,2013-01-13 10:50:00,
2013-01-13 05:55:00,42.1,41.8,30.12,West,280,1.0,0.0,99,0.00,,,0.00,WeatherTracker,2013-01-13 10:55:00,
2013-01-13 06:05:00,42.1,41.8,30.12,West,279,2.0,0.0,99,0.00,,,0.00,WeatherTracker,2013-01-13 11:05:00,
2013-01-13 06:10:00,42.1,41.8,30.12,West,279,0.0,0.0,99,0.00,,,0.00,WeatherTracker,2013-01-13 11:10:00,
2013-01-13 06:20:00,42.0,41.7,30.12,West,279,0.0,0.0,99,0.00,,,0.00,WeatherTracker,2013-01-13 11:20:00,
2013-01-13 06:30:00,41.8,41.5,30.11,SSW,202,0.0,0.0,99,0.00,,,0.00,WeatherTracker,2013-01-13 11:30:00,
2013-01-13 06:35:00,41.7,41.4,30.11,SSW,200,1.0,0.0,99,0.00,,,0.00,WeatherTracker,2013-01-13 11:35:00,
2013-01-13 06:40:00,41.7,41.4,30.11,SSW,200,0.0,0.0,99,0.00,,,0.00,WeatherTracker,2013-01-13 11:40:00,
2013-01-13 06:45:00,41.6,41.3,30.12,SW,223,1.0,0.0,99,0.00,,,0.00,WeatherTracker,2013-01-13 11:45:00,
2013-01-13 06:55:00,41.6,41.3,30.12,SW,223,0.0,0.0,99,0.00,,,0.00,WeatherTracker,2013-01-13 11:55:00,
2013-01-13 07:05:00,41.7,41.4,30.12,SW,223,0.0,0.0,99,0.00,,,0.00,WeatherTracker,2013-01-13 12:05:00,
2013-01-13 07:15:00,41.8,41.5,30.12,SW,220,2.0,0.0,99,0.00,,,0.00,WeatherTracker,2013-01-13 12:15:00,
2013-01-13 07:20:00,41.9,41.6,30.13,SW,221,1.0,0.0,99,0.00,,,0.00,WeatherTracker,2013-01-13 12:20:00,
2013-01-13 07:25:00,41.9,41.6,30.13,WSW,241,2.0,0.0,99,0.00,,,0.00,WeatherTracker,2013-01-13 12:25:00,
2013-01-13 07:30:00,42.0,41.7,30.14,WSW,242,0.0,0.0,99,0.00,,,0.00,WeatherTracker,2013-01-13 12:30:00,
2013-01-13 07:40:00,42.2,41.9,30.13,WSW,242,1.0,0.0,99,0.00,,,0.00,WeatherTracker,2013-01-13 12:40:00,
2013-01-13 07:45:00,42.2,41.9,30.14,West,259,0.0,0.0,99,0.00,,,0.00,WeatherTracker,2013-01-13 12:45:00,
2013-01-13 07:50:00,42.2,41.9,30.14,WSW,258,0.0,0.0,99,0.00,,,0.00,WeatherTracker,2013-01-13 12:50:00,
2013-01-13 07:55:00,42.3,42.0,30.14,WSW,241,1.0,0.0,99,0.00,,,0.00,WeatherTracker,2013-01-13 12:55:00,
2013-01-13 08:05:00,42.4,42.1,30.15,SW,217,1.0,0.0,99,0.00,,,0.00,WeatherTracker,2013-01-13 13:05:00,
2013-01-13 08:10:00,42.5,42.2,30.14,SW,224,2.0,0.0,99,0.00,,,0.00,WeatherTracker,2013-01-13 13:10:00,
2013-01-13 08:20:00,42.6,42.3,30.14,SW,220,1.0,0.0,99,0.01,,,0.01,WeatherTracker,2013-01-13 13:20:00,
2013-01-13 08:30:00,42.8,42.5,30.14,SSW,213,0.0,0.0,99,0.01,,,0.01,WeatherTracker,2013-01-13 13:30:00,
2013-01-13 08:35:00,42.9,42.6,30.14,SSW,213,1.0,0.0,99,0.01,,,0.01,WeatherTracker,2013-01-13 13:35:00,
2013-01-13 08:40:00,43.1,42.8,30.14,SSW,213,1.0,0.0,99,0.01,,,0.01,WeatherTracker,2013-01-13 13:40:00,
2013-01-13 08:45:00,43.3,43.0,30.14,SSW,202,1.0,0.0,99,0.01,,,0.01,WeatherTracker,2013-01-13 13:45:00,
2013-01-13 08:55:00,43.5,43.2,30.14,SW,222,3.0,0.0,99,0.01,,,0.01,WeatherTracker,2013-01-13 13:55:00,
2013-01-13 09:00:00,43.6,43.3,30.14,South,180,3.0,0.0,99,0.01,,,0.01,WeatherTracker,2013-01-13 14:00:00,
2013-01-13 09:05:00,43.6,43.3,30.14,SSW,192,1.0,0.0,99,0.01,,,0.01,WeatherTracker,2013-01-13 14:05:00,
2013-01-13 09:15:00,43.7,43.4,30.15,WSW,245,1.0,0.0,99,0.00,,,0.01,WeatherTracker,2013-01-13 14:15:00,
2013-01-13 09:20:00,43.7,43.4,30.14,WSW,248,0.0,0.0,99,0.00,,,0.01,WeatherTracker,2013-01-13 14:20:00,
2013-01-13 09:25:00,43.8,43.5,30.14,SW,217,1.0,0.0,99,0.00,,,0.01,WeatherTracker,2013-01-13 14:25:00,
2013-01-13 09:35:00,43.9,43.6,30.15,SW,227,2.0,0.0,99,0.00,,,0.01,WeatherTracker,2013-01-13 14:35:00,
2013-01-13 09:45:00,44.4,44.1,30.14,SW,227,3.0,0.0,99,0.00,,,0.01,WeatherTracker,2013-01-13 14:45:00,
2013-01-13 09:55:00,44.7,44.4,30.15,SSW,200,1.0,0.0,99,0.00,,,0.01,WeatherTracker,2013-01-13 14:55:00,
2013-01-13 10:05:00,45.0,44.7,30.15,SW,222,1.0,0.0,99,0.00,,,0.01,WeatherTracker,2013-01-13 15:05:00,
2013-01-13 10:10:00,45.1,44.8,30.16,SW,236,2.0,0.0,99,0.00,,,0.01,WeatherTracker,2013-01-13 15:10:00,
2013-01-13 10:20:00,45.4,45.1,30.15,SSW,207,4.0,0.0,99,0.00,,,0.01,WeatherTracker,2013-01-13 15:20:00,
2013-01-13 10:25:00,45.4,45.1,30.15,SSW,192,3.0,0.0,99,0.00,,,0.01,WeatherTracker,2013-01-13 15:25:00,
2013-01-13 10:35:00,45.5,45.2,30.14,West,271,1.0,0.0,99,0.00,,,0.01,WeatherTracker,2013-01-13 15:35:00,
2013-01-13 10:40:00,45.6,45.3,30.14,WSW,250,3.0,0.0,99,0.00,,,0.01,WeatherTracker,2013-01-13 15:40:00,
2013-01-13 10:45:00,45.7,45.4,30.14,SW,215,2.0,0.0,99,0.00,,,0.01,WeatherTracker,2013-01-13 15:45:00,
2013-01-13 10:50:00,45.8,45.5,30.14,SW,220,3.0,0.0,99,0.00,,,0.01,WeatherTracker,2013-01-13 15:50:00,
2013-01-13 10:55:00,46.0,45.7,30.14,SW,221,1.0,0.0,99,0.00,,,0.01,WeatherTracker,2013-01-13 15:55:00,
2013-01-13 11:05:00,46.3,46.0,30.13,WSW,248,1.0,0.0,99,0.00,,,0.01,WeatherTracker,2013-01-13 16:05:00,
2013-01-13 11:10:00,46.3,46.0,30.13,WSW,257,4.0,0.0,99,0.00,,,0.01,WeatherTracker,2013-01-13 16:10:00,
2013-01-13 11:15:00,46.3,46.0,30.12,SW,215,2.0,0.0,99,0.00,,,0.01,WeatherTracker,2013-01-13 16:15:00,
2013-01-13 11:20:00,46.4,46.1,30.12,SW,225,3.0,0.0,99,0.00,,,0.01,WeatherTracker,2013-01-13 16:20:00,
2013-01-13 11:25:00,46.4,46.1,30.12,South,187,5.0,0.0,99,0.00,,,0.01,WeatherTracker,2013-01-13 16:25:00,
2013-01-13 11:35:00,46.5,46.2,30.12,WSW,255,3.0,0.0,99,0.00,,,0.01,WeatherTracker,2013-01-13 16:35:00,
2013-01-13 11:40:00,46.6,46.3,30.11,SW,228,2.0,0.0,99,0.00,,,0.01,WeatherTracker,2013-01-13 16:40:00,
2013-01-13 11:45:00,46.7,46.4,30.11,West,262,2.0,0.0,99,0.00,,,0.01,WeatherTracker,2013-01-13 16:45:00,
2013-01-13 11:55:00,46.8,46.5,30.11,SW,219,3.0,0.0,99,0.00,,,0.01,WeatherTracker,2013-01-13 16:55:00,
2013-01-13 12:05:00,47.1,46.8,30.11,SSW,203,1.0,0.0,99,0.00,,,0.01,WeatherTracker,2013-01-13 17:05:00,
2013-01-13 12:10:00,47.1,46.8,30.11,WSW,242,7.0,0.0,99,0.00,,,0.01,WeatherTracker,2013-01-13 17:10:00,
2013-01-13 12:20:00,47.2,46.9,30.10,WSW,250,3.0,0.0,99,0.00,,,0.01,WeatherTracker,2013-01-13 17:20:00,
2013-01-13 12:30:00,47.3,47.0,30.10,SSW,207,2.0,0.0,99,0.00,,,0.01,WeatherTracker,2013-01-13 17:30:00,
2013-01-13 12:35:00,47.4,47.1,30.10,SW,217,8.0,0.0,99,0.00,,,0.01,WeatherTracker,2013-01-13 17:35:00,
2013-01-13 12:45:00,47.5,47.2,30.09,West,262,3.0,0.0,99,0.00,,,0.01,WeatherTracker,2013-01-13 17:45:00,
2013-01-13 12:50:00,47.5,47.2,30.08,WSW,254,2.0,0.0,99,0.00,,,0.01,WeatherTracker,2013-01-13 17:50:00,
2013-01-13 13:00:00,47.8,47.5,30.08,SSW,209,7.0,0.0,99,0.00,,,0.01,WeatherTracker,2013-01-13 18:00:00,
2013-01-13 13:05:00,47.8,47.5,30.08,SW,217,6.0,0.0,99,0.00,,,0.01,WeatherTracker,2013-01-13 18:05:00,
2013-01-13 13:15:00,48.0,47.7,30.08,SSW,209,0.0,0.0,99,0.00,,,0.01,WeatherTracker,2013-01-13 18:15:00,
2013-01-13 13:20:00,48.2,47.9,30.08,SSW,202,4.0,0.0,99,0.00,,,0.01,WeatherTracker,2013-01-13 18:20:00,
2013-01-13 13:25:00,48.3,48.0,30.08,SW,221,1.0,0.0,99,0.00,,,0.01,WeatherTracker,2013-01-13 18:25:00,
2013-01-13 13:35:00,48.5,48.2,30.08,SW,219,3.0,0.0,99,0.00,,,0.01,WeatherTracker,2013-01-13 18:35:00,
2013-01-13 13:40:00,48.7,48.4,30.07,SSW,208,4.0,0.0,99,0.00,,,0.01,WeatherTracker,2013-01-13 18:40:00,
2013-01-13 13:45:00,48.8,48.5,30.07,SSW,206,2.0,0.0,99,0.00,,,0.01,WeatherTracker,2013-01-13 18:45:00,
2013-01-13 13:50:00,49.0,48.7,30.07,West,261,4.0,0.0,99,0.00,,,0.01,WeatherTracker,2013-01-13 18:50:00,
2013-01-13 14:00:00,49.3,48.8,30.07,SW,220,1.0,0.0,98,0.00,,,0.01,WeatherTracker,2013-01-13 19:00:00,
2013-01-13 14:05:00,49.4,48.9,30.07,SSW,203,5.0,0.0,98,0.00,,,0.01,WeatherTracker,2013-01-13 19:05:00,
2013-01-13 14:10:00,49.5,49.0,30.07,SSW,208,4.0,0.0,98,0.00,,,0.01,WeatherTracker,2013-01-13 19:10:00,
2013-01-13 14:20:00,49.6,49.1,30.06,SW,219,1.0,0.0,98,0.00,,,0.01,WeatherTracker,2013-01-13 19:20:00,
2013-01-13 14:25:00,49.7,49.2,30.06,SW,217,3.0,0.0,98,0.00,,,0.01,WeatherTracker,2013-01-13 19:25:00,
2013-01-13 14:35:00,50.0,49.5,30.05,SW,215,2.0,0.0,98,0.00,,,0.01,WeatherTracker,2013-01-13 19:35:00,
2013-01-13 14:40:00,50.3,49.8,30.05,SW,236,2.0,0.0,98,0.00,,,0.01,WeatherTracker,2013-01-13 19:40:00,
2013-01-13 14:45:00,50.5,50.0,30.05,WSW,254,2.0,0.0,98,0.00,,,0.01,WeatherTracker,2013-01-13 19:45:00,
2013-01-13 14:50:00,50.6,49.8,30.05,WSW,247,2.0,0.0,97,0.00,,,0.01,WeatherTracker,2013-01-13 19:50:00,
2013-01-13 15:00:00,51.0,50.2,30.06,West,278,0.0,0.0,97,0.00,,,0.01,WeatherTracker,2013-01-13 20:00:00,
2013-01-13 15:05:00,51.2,50.4,30.06,West,277,1.0,0.0,97,0.00,,,0.01,WeatherTracker,2013-01-13 20:05:00,
2013-01-13 15:10:00,51.4,50.3,30.05,SW,227,0.0,0.0,96,0.00,,,0.01,WeatherTracker,2013-01-13 20:10:00,
2013-01-13 15:15:00,51.8,50.7,30.05,SW,217,1.0,0.0,96,0.00,,,0.01,WeatherTracker,2013-01-13 20:15:00,
2013-01-13 15:20:00,52.3,51.2,30.05,SW,221,2.0,0.0,96,0.00,,,0.01,WeatherTracker,2013-01-13 20:20:00,
2013-01-13 15:25:00,52.6,51.2,30.05,WSW,250,0.0,0.0,95,0.00,,,0.01,WeatherTracker,2013-01-13 20:25:00,
2013-01-13 15:30:00,52.7,51.0,30.05,WNW,290,1.0,0.0,94,0.00,,,0.01,WeatherTracker,2013-01-13 20:30:00,
2013-01-13 15:40:00,52.7,50.7,30.04,SW,215,1.0,0.0,93,0.00,,,0.01,WeatherTracker,2013-01-13 20:40:00,
2013-01-13 15:45:00,52.7,50.7,30.04,SSE,148,1.0,0.0,93,0.00,,,0.01,WeatherTracker,2013-01-13 20:45:00,
2013-01-13 15:55:00,52.5,50.2,30.04,South,180,0.0,0.0,92,0.00,,,0.01,WeatherTracker,2013-01-13 20:55:00,
2013-01-13 16:00:00,52.3,50.3,30.04,SSW,210,1.0,0.0,93,0.00,,,0.01,WeatherTracker,2013-01-13 21:00:00,
2013-01-13 16:05:00,52.2,49.9,30.04,SW,230,7.0,0.0,92,0.00,,,0.01,WeatherTracker,2013-01-13 21:05:00,
2013-01-13 16:15:00,52.0,50.0,30.05,SW,227,5.0,0.0,93,0.00,,,0.01,WeatherTracker,2013-01-13 21:15:00,
2013-01-13 16:20:00,52.0,50.0,30.04,South,180,4.0,0.0,93,0.00,,,0.01,WeatherTracker,2013-01-13 21:20:00,
2013-01-13 16:30:00,51.8,49.8,30.04,SW,221,2.0,0.0,93,0.00,,,0.01,WeatherTracker,2013-01-13 21:30:00,
2013-01-13 16:35:00,51.8,49.8,30.04,SW,214,2.0,0.0,93,0.00,,,0.01,WeatherTracker,2013-01-13 21:35:00,
2013-01-13 16:45:00,51.6,49.6,30.03,SSW,213,2.0,0.0,93,0.00,,,0.01,WeatherTracker,2013-01-13 21:45:00,
2013-01-13 16:55:00,51.3,49.6,30.03,WSW,238,1.0,0.0,94,0.00,,,0.01,WeatherTracker,2013-01-13 21:55:00,
2013-01-13 17:00:00,51.1,49.4,30.03,SSW,200,2.0,0.0,94,0.00,,,0.01,WeatherTracker,2013-01-13 22:00:00,
2013-01-13 17:05:00,50.9,49.2,30.03,SW,226,1.0,0.0,94,0.00,,,0.01,WeatherTracker,2013-01-13 22:05:00,
2013-01-13 17:10:00,50.8,49.1,30.02,WSW,238,2.0,0.0,94,0.00,,,0.01,WeatherTracker,2013-01-13 22:10:00,
2013-01-13 17:20:00,50.5,49.1,30.03,SW,227,3.0,0.0,95,0.00,,,0.01,WeatherTracker,2013-01-13 22:20:00,
2013-01-13 17:25:00,50.4,49.0,30.02,SW,228,1.0,0.0,95,0.00,,,0.01,WeatherTracker,2013-01-13 22:25:00,
2013-01-13 17:35:00,50.2,48.8,30.03,SW,232,2.0,0.0,95,0.00,,,0.01,WeatherTracker,2013-01-13 22:35:00,
2013-01-13 17:45:00,49.9,48.5,30.02,SW,231,2.0,0.0,95,0.00,,,0.01,WeatherTracker,2013-01-13 22:45:00,
2013-01-13 17:55:00,49.4,48.0,30.01,WSW,242,3.0,0.0,95,0.00,,,0.01,WeatherTracker,2013-01-13 22:55:00,
2013-01-13 18:00:00,49.4,48.3,30.01,SW,231,3.0,0.0,96,0.00,,,0.01,WeatherTracker,2013-01-13 23:00:00,
2013-01-13 18:05:00,49.4,48.3,30.01,West,269,1.0,0.0,96,0.00,,,0.01,WeatherTracker,2013-01-13 23:05:00,
2013-01-13 18:15:00,49.5,48.7,30.02,WSW,246,1.0,0.0,97,0.00,,,0.01,WeatherTracker,2013-01-13 23:15:00,
2013-01-13 18:20:00,49.5,48.7,30.02,West,268,1.0,0.0,97,0.00,,,0.01,WeatherTracker,2013-01-13 23:20:00,
2013-01-13 18:25:00,49.5,48.4,30.01,WNW,283,0.0,0.0,96,0.00,,,0.01,WeatherTracker,2013-01-13 23:25:00,
2013-01-13 18:30:00,49.5,48.4,30.01,SW,225,3.0,0.0,96,0.00,,,0.01,WeatherTracker,2013-01-13 23:30:00,
2013-01-13 18:35:00,49.6,48.5,30.02,WSW,243,4.0,0.0,96,0.00,,,0.01,WeatherTracker,2013-01-13 23:35:00,
2013-01-13 18:40:00,49.7,48.6,30.02,West,259,2.0,0.0,96,0.00,,,0.01,WeatherTracker,2013-01-13 23:40:00,
2013-01-13 18:45:00,49.7,48.6,30.02,West,273,3.0,0.0,96,0.00,,,0.01,WeatherTracker,2013-01-13 23:45:00,
2013-01-13 18:55:00,49.9,48.5,30.02,WSW,246,1.0,0.0,95,0.00,,,0.01,WeatherTracker,2013-01-13 23:55:00,
2013-01-13 19:00:00,50.0,48.6,30.02,West,263,7.0,0.0,95,0.00,,,0.01,WeatherTracker,2013-01-14 00:00:00,
2013-01-13 19:05:00,50.1,48.7,30.02,WNW,294,3.0,0.0,95,0.00,,,0.01,WeatherTracker,2013-01-14 00:05:00,
2013-01-13 19:10:00,50.1,48.7,30.02,WSW,254,2.0,0.0,95,0.00,,,0.01,WeatherTracker,2013-01-14 00:10:00,
2013-01-13 19:15:00,50.3,48.9,30.02,WNW,292,3.0,0.0,95,0.00,,,0.01,WeatherTracker,2013-01-14 00:15:00,
2013-01-13 19:25:00,50.4,48.7,30.02,WSW,248,3.0,0.0,94,0.00,,,0.01,WeatherTracker,2013-01-14 00:25:00,
2013-01-13 19:30:00,50.4,48.7,30.02,SW,223,2.0,0.0,94,0.00,,,0.01,WeatherTracker,2013-01-14 00:30:00,
2013-01-13 19:35:00,50.4,48.7,30.02,SW,222,3.0,0.0,94,0.00,,,0.01,WeatherTracker,2013-01-14 00:35:00,
2013-01-13 19:45:00,50.4,48.7,30.02,WSW,257,3.0,0.0,94,0.00,,,0.01,WeatherTracker,2013-01-14 00:45:00,
2013-01-13 19:50:00,50.4,48.7,30.02,NW,310,6.0,0.0,94,0.00,,,0.01,WeatherTracker,2013-01-14 00:50:00,
2013-01-13 20:00:00,50.4,48.7,30.02,SW,236,4.0,0.0,94,0.00,,,0.01,WeatherTracker,2013-01-14 01:00:00,
2013-01-13 20:05:00,50.4,48.7,30.02,West,271,5.0,0.0,94,0.00,,,0.01,WeatherTracker,2013-01-14 01:05:00,
2013-01-13 20:10:00,50.4,48.7,30.02,WSW,248,9.0,0.0,94,0.00,,,0.01,WeatherTracker,2013-01-14 01:10:00,
2013-01-13 20:20:00,50.4,48.5,30.02,SW,223,6.0,0.0,93,0.00,,,0.01,WeatherTracker,2013-01-14 01:20:00,
2013-01-13 20:25:00,50.4,48.5,30.01,SW,220,3.0,0.0,93,0.00,,,0.01,WeatherTracker,2013-01-14 01:25:00,
2013-01-13 20:30:00,50.4,48.5,30.01,SW,228,6.0,0.0,93,0.00,,,0.01,WeatherTracker,2013-01-14 01:30:00,
2013-01-13 20:35:00,50.4,48.5,30.01,SW,236,1.0,0.0,93,0.00,,,0.01,WeatherTracker,2013-01-14 01:35:00,
2013-01-13 20:40:00,50.4,48.5,30.02,West,259,1.0,0.0,93,0.00,,,0.01,WeatherTracker,2013-01-14 01:40:00,
2013-01-13 20:50:00,50.5,48.6,30.02,WSW,239,3.0,0.0,93,0.00,,,0.01,WeatherTracker,2013-01-14 01:50:00,
2013-01-13 20:55:00,50.5,48.6,30.02,WSW,238,2.0,0.0,93,0.00,,,0.01,WeatherTracker,2013-01-14 01:55:00,
2013-01-13 21:05:00,50.6,48.7,30.01,SW,225,3.0,0.0,93,0.00,,,0.01,WeatherTracker,2013-01-14 02:05:00,
2013-01-13 21:10:00,50.6,48.7,30.00,SW,233,6.0,0.0,93,0.00,,,0.01,WeatherTracker,2013-01-14 02:10:00,
2013-01-13 21:15:00,50.6,48.7,30.00,SW,223,4.0,0.0,93,0.00,,,0.01,WeatherTracker,2013-01-14 02:15:00,
2013-01-13 21:20:00,50.7,48.5,30.01,West,259,2.0,0.0,92,0.00,,,0.01,WeatherTracker,2013-01-14 02:20:00,
2013-01-13 21:30:00,50.8,48.6,30.00,SW,236,10.0,0.0,92,0.00,,,0.01,WeatherTracker,2013-01-14 02:30:00,
2013-01-13 21:40:00,50.9,48.7,30.00,SSW,203,3.0,0.0,92,0.00,,,0.01,WeatherTracker,2013-01-14 02:40:00,
2013-01-13 21:45:00,50.9,48.7,30.00,SSW,209,5.0,0.0,92,0.00,,,0.01,WeatherTracker,2013-01-14 02:45:00,
2013-01-13 21:55:00,50.9,48.7,29.99,SSW,213,5.0,0.0,92,0.00,,,0.01,WeatherTracker,2013-01-14 02:55:00,
2013-01-13 22:00:00,50.9,48.7,29.99,South,184,3.0,0.0,92,0.00,,,0.01,WeatherTracker,2013-01-14 03:00:00,
2013-01-13 22:05:00,50.9,48.7,30.00,SSW,200,6.0,0.0,92,0.00,,,0.01,WeatherTracker,2013-01-14 03:05:00,
2013-01-13 22:10:00,51.0,48.8,30.00,SW,232,2.0,0.0,92,0.00,,,0.01,WeatherTracker,2013-01-14 03:10:00,
2013-01-13 22:15:00,51.1,48.9,30.00,SSW,211,8.0,0.0,92,0.00,,,0.01,WeatherTracker,2013-01-14 03:15:00,
2013-01-13 22:25:00,51.2,49.0,30.00,SSW,206,4.0,0.0,92,0.00,,,0.01,WeatherTracker,2013-01-14 03:25:00,
2013-01-13 22:30:00,51.3,49.3,30.00,SW,218,2.0,0.0,93,0.00,,,0.01,WeatherTracker,2013-01-14 03:30:00,
2013-01-13 22:40:00,51.4,49.4,30.00,WSW,244,4.0,0.0,93,0.00,,,0.01,WeatherTracker,2013-01-14 03:40:00,
2013-01-13 22:45:00,51.5,49.5,30.00,WSW,252,0.0,0.0,93,0.00,,,0.01,WeatherTracker,2013-01-14 03:45:00,
2013-01-13 22:55:00,51.4,49.4,30.00,WSW,245,3.0,0.0,93,0.00,,,0.01,WeatherTracker,2013-01-14 03:55:00,
2013-01-13 23:00:00,51.4,49.4,29.99,SSW,197,3.0,0.0,93,0.00,,,0.01,WeatherTracker,2013-01-14 04:00:00,
2013-01-13 23:05:00,51.3,49.3,30.00,SW,225,1.0,0.0,93,0.00,,,0.01,WeatherTracker,2013-01-14 04:05:00,
2013-01-13 23:10:00,51.3,49.3,30.00,West,275,2.0,0.0,93,0.00,,,0.01,WeatherTracker,2013-01-14 04:10:00,
2013-01-13 23:15:00,51.3,49.3,30.00,WSW,242,4.0,0.0,93,0.00,,,0.01,WeatherTracker,2013-01-14 04:15:00,
2013-01-13 23:25:00,51.2,49.5,29.99,SSW,213,4.0,0.0,94,0.00,,,0.01,WeatherTracker,2013-01-14 04:25:00,
2013-01-13 23:30:00,51.2,49.5,29.99,West,262,3.0,0.0,94,0.00,,,0.01,WeatherTracker,2013-01-14 04:30:00,
2013-01-13 23:35:00,51.2,49.5,30.00,WSW,255,4.0,0.0,94,0.00,,,0.01,WeatherTracker,2013-01-14 04:35:00,
2013-01-13 23:45:00,51.1,49.4,30.00,WSW,257,2.0,0.0,94,0.00,,,0.01,WeatherTracker,2013-01-14 04:45:00,
2013-01-13 23:50:00,51.1,49.4,30.00,WSW,254,3.0,0.0,94,0.00,,,0.01,WeatherTracker,2013-01-14 04:50:00,
2013-01-13 23:55:00,51.1,49.4,30.00,West,261,2.0,0.0,94,0.00,,,0.01,WeatherTracker,2013-01-14 04:55:00,